Flag for Australia Weather past 2 weeks in Launceston, Tasmania, Australia

Now
52 °F

Partly cloudy.


Feels Like: 48 °F
Forecast: 36 / 55 °F
Wind: 12 mph from Northwest

Location: Launceston Airport


UV Index: 0 (Low)

Visibility: N/A


Pressure: 29.74 "Hg

Humidity: 88%

Dew point: 48 °F

Location of LauncestonLocation

Historic Weather in Launceston

°F

Launceston temperature yesterday

Maximum temperature yesterday: 59 °F (at 11:30 AM)
Minimum temperature yesterday: 37 °F (at 7:30 AM)
Average temperature yesterday: 49 °F

Past Weeks' High & Low Weather Summary

 TemperatureHumidityPressure
High70 °F (Apr 10, 12:30 PM)100% (Apr 9, 12:02 AM)30.27 "Hg (Apr 9, 12:02 AM)
Low34 °F (Apr 20, 5:00 AM)37% (Apr 13, 1:30 PM)29.71 "Hg (Apr 22, 3:30 AM)
Average53 °F77%30.05 "Hg
* Reported Apr 9 12:02 AM — Midnight between Apr 23 and Apr 24, Launceston, Weather by CustomWeather, © 2014

Note: Actual official high and low records may vary slightly from our data, if they occured in-between our weather recording intervals... More about our weather records

Advertising

Historic Weather Conditions — Data for Previous 24 hours

 ConditionsComfort  
Time TempWeatherWind HumidityBarometerVisibility
12:00 AM
Apr 24
52 °FPassing clouds.12 mph88%29.74 "HgN/A
11:30 PM
Apr 23
50 °FPassing clouds.13 mph94%29.74 "HgN/A
11:00 PM50 °FPassing clouds.10 mph94%29.77 "HgN/A
10:30 PM52 °FOvercast.12 mph88%29.77 "HgN/A
10:00 PM50 °FPartly cloudy.10 mph100%29.80 "HgN/A
9:30 PM48 °FPassing clouds.8 mph94%29.80 "HgN/A
9:00 PM50 °FClear.8 mph94%29.83 "HgN/A
8:05 PM52 °FPassing clouds.8 mph94%29.83 "HgN/A
7:30 PM50 °FPassing clouds.10 mph100%29.83 "HgN/A
7:00 PM52 °FPartly cloudy.10 mph94%29.83 "HgN/A
6:30 PM52 °FOvercast.13 mph94%29.83 "HgN/A
6:00 PM54 °FOvercast.14 mph82%29.83 "HgN/A
5:30 PM54 °FOvercast.12 mph82%29.83 "HgN/A
5:00 PM54 °FOvercast.17 mph77%29.86 "HgN/A
4:30 PM57 °FMostly cloudy.15 mph67%29.83 "HgN/A
4:00 PM55 °FPartly sunny.14 mph72%29.86 "HgN/A
3:30 PM57 °FMore clouds than sun.18 mph67%29.86 "HgN/A
3:00 PM57 °FBroken clouds.16 mph63%29.86 "HgN/A
2:30 PM59 °FBroken clouds.17 mph59%29.86 "HgN/A
2:00 PM59 °FScattered clouds.17 mph63%29.86 "HgN/A
1:30 PM59 °FMore clouds than sun.17 mph63%29.89 "HgN/A
1:00 PM59 °FMore clouds than sun.17 mph63%29.89 "HgN/A
12:30 PM59 °FBroken clouds.20 mph63%29.92 "HgN/A
12:00 PM59 °FSunny.17 mph59%29.92 "HgN/A
11:30 AM59 °FSunny.15 mph63%29.92 "HgN/A
11:00 AM57 °FPartly sunny.14 mph67%29.95 "HgN/A
10:30 AM55 °FScattered clouds.15 mph67%29.95 "HgN/A
10:00 AM54 °FPartly sunny.8 mph77%29.98 "HgN/A
9:30 AM50 °FPartly sunny.8 mph88%29.98 "HgN/A
9:00 AM50 °FOvercast.6 mph94%29.98 "HgN/A
8:30 AM46 °FOvercast.6 mph93%29.98 "HgN/A
8:00 AM45 °FPartly sunny.6 mph93%29.98 "HgN/A
7:30 AM37 °FSunny.6 mph93%29.98 "HgN/A
7:00 AM39 °FSunny.3 mph93%29.98 "Hg2 mi
6:30 AM39 °FSunny.1 mph93%29.95 "Hg2 mi
6:00 AM41 °FSunny.No wind93%29.98 "HgN/A
5:30 AM41 °FClear.No wind93%29.98 "HgN/A
5:01 AM39 °FClear.3 mph93%29.98 "Hg2 mi
4:30 AM41 °FClear.6 mph87%29.98 "HgN/A
4:00 AM41 °FClear.6 mph93%29.98 "HgN/A
3:30 AM43 °FPassing clouds.5 mph93%29.98 "HgN/A
3:00 AM43 °FClear.6 mph100%29.95 "HgN/A
2:30 AM41 °FClear.5 mph93%29.98 "HgN/A
2:00 AM43 °FClear.5 mph93%29.98 "HgN/A
1:30 AM45 °FClear.6 mph87%29.98 "HgN/A
1:00 AM45 °FClear.3 mph87%29.98 "HgN/A
Weather by CustomWeather, © 2014

See weather overview